{"data":{"norad_id":55283,"intl_designator":"2023-010Q","name":"STARLINK-5317","alt_names":[],"object_type":"PAYLOAD","status":"ACTIVE","operator":null,"country":"US","launch_date":"2023-01-19","launch_site_code":"AFWTR","launch_vehicle":null,"mission":null,"orbit_class":"UNKNOWN","rcs_meters":null,"size_class":null,"mass_kg":null,"dimensions":null,"purposes":["comms"],"wikipedia_slug":null,"has_3d_model":false,"image_url":null,"decayed_at":null,"tle_current":{"epoch":"2026-09-20T22:00:03.000096Z","epoch_age_seconds":56782,"freshness":"FRESH","line1":"1 55283U 23010Q   26263.91670139  .00118633  00000+0  78311-2 0  9997","line2":"2 55283  70.0015 272.0922 0004204 276.8094  37.0183 15.06763046  5665","mean_motion":15.06763046,"eccentricity":0.0004204,"inclination_deg":70.0015,"raan_deg":272.0922,"arg_perigee_deg":276.8094,"mean_anomaly_deg":37.0183,"bstar":0.0078311,"rev_number":566,"period_min":95.56910781843,"perigee_km":543.18814879936,"apogee_km":549.01004651027,"semimajor_km":6924.2360976548,"source":"CELESTRAK","updated_at":"2026-09-21T09:00:33.167194Z"}}}